Content
SEND FEEDBACK

Daily
Averages
Monthly
Summary
United States of America

ROCK HILL, NEW YORK


Home > North America > United States > New York
Elevation: 384 meters     Latitude: 41 35N     Longitude: 074 37W

WEATHER
 
SELECT A DAY
Number of Records: 443,635;   Date Range: 1/1/95 - 8/12/14
 
SHARE

PRINT THIS DATA

[ ← Previous Day ]
WEATHER ALMANAC - 4 FEBRUARY, 2014
[ Next Day → ]
[ °F ]   °C
Weather ElementAverageHighLow
Temperature-7.1 °C-3 °C (2:15 pm)-13 °C (7:35 am)
Dewpoint-11.8 °C-8 °C (7:55 pm)-16 °C (5:15 am)
Humidity69.9 %80 % (11:35 pm)55 % (2:15 pm)
Barometer1026.8 hPa1029.8 hPa (10:35 am)1023 hPa (11:35 pm)
Wind Speed4.8 km/h14.8 km/h (10:35 pm)
Weather ElementAverage
Visibility16.1 km
Wind DirectionESE (110.3 °)

Weather ElementTotal
Precipitation---
Heating Degree Days26.3 (Base 18.3)
Averaged from 71 records on 4 February, 2014
WEATHER CONDITIONS BREAKOUT
WIND DIRECTION BREAKOUT
WEATHER BY HOUR - 4 FEBRUARY, 2014
[ °F ]   °C
Local TimeTemperatureDewpointHumidityBarometerVisibilityWind DirectionWind SpeedGust SpeedPrecipitationEventsConditions
12:35 AM-10 °C-13 °C79 %1025.1 hPa16.1 kmNW (320°)7.4 km/hClear
12:55 AM-10 °C-14 °C73 %1025.1 hPa16.1 kmNW (310°)11.1 km/hMostly Cloudy
1:15 AM-10 °C-14 °C73 %1025.7 hPa16.1 kmNW (310°)11.1 km/hOvercast
1:35 AM-10 °C-14 °C73 %1026.1 hPa16.1 kmNW (310°)11.1 km/hOvercast
1:55 AM-10 °C-14 °C73 %1026.1 hPa16.1 kmNW (320°)9.3 km/hOvercast
2:15 AM-10 °C-14 °C73 %1026.1 hPa16.1 kmNW (320°)11.1 km/hMostly Cloudy
2:35 AM-10 °C-14 °C73 %1025.7 hPa16.1 kmNW (320°)7.4 km/hMostly Cloudy
2:55 AM-10 °C-14 °C73 %1026.1 hPa16.1 kmNW (320°)9.3 km/hOvercast
3:15 AM-10 °C-14 °C73 %1025.7 hPa16.1 kmNW (320°)11.1 km/hOvercast
3:35 AM-10 °C-14 °C73 %1026.4 hPa16.1 kmNW (310°)13 km/hOvercast
3:55 AM-11 °C-14 °C79 %1026.4 hPa16.1 kmNW (310°)11.1 km/hOvercast
4:15 AM-11 °C-15 °C73 %1026.8 hPa16.1 kmNW (310°)13 km/hOvercast
4:35 AM-11 °C-15 °C73 %1026.8 hPa16.1 kmNW (310°)13 km/hScattered Clouds
4:55 AM-12 °C-15 °C79 %1026.8 hPa16.1 kmNW (310°)13 km/hClear
5:15 AM-12 °C-16 °C73 %1026.8 hPa16.1 kmNW (310°)13 km/hClear
5:35 AM-12 °C-15 °C79 %1026.8 hPa16.1 kmWNW (300°)11.1 km/hClear
5:55 AM-12 °C-16 °C73 %1027.1 hPa16.1 kmNW (320°)7.4 km/hClear
6:15 AM-12 °C-15 °C79 %1026.8 hPa16.1 kmWNW (300°)5.6 km/hClear
6:35 AM-12 °C-16 °C73 %1027.4 hPa16.1 kmWNW (300°)5.6 km/hClear
6:55 AM-12 °C-16 °C73 %1027.4 hPa16.1 kmWNW (290°)7.4 km/hClear
7:15 AM-12 °C-16 °C73 %1028.1 hPa16.1 kmWNW (300°)7.4 km/hClear
7:35 AM-13 °C-16 °C79 %1028.1 hPa16.1 kmCalmClear
7:55 AM-12 °C-15 °C79 %1028.1 hPa16.1 kmCalmClear
8:15 AM-12 °C-16 °C73 %1028.4 hPa16.1 kmCalmClear
8:35 AM-12 °C-16 °C73 %1028.8 hPa16.1 kmCalmClear
8:55 AM-11 °C-14 °C79 %1028.8 hPa16.1 kmCalmClear
9:15 AM-11 °C-14 °C79 %1029.1 hPa16.1 kmCalmClear
9:35 AM-10 °C-14 °C73 %1029.1 hPa16.1 kmCalmClear
9:55 AM-9 °C-14 °C68 %1029.5 hPa16.1 kmCalmClear
10:15 AM-8 °C-13 °C68 %1029.5 hPa16.1 kmCalmClear
10:35 AM-7 °C-14 °C58 %1029.8 hPa16.1 kmCalmClear
10:55 AM-7 °C-13 °C63 %1029.8 hPa16.1 kmCalmClear
11:15 AM-7 °C-13 °C63 %1029.5 hPa16.1 kmCalmClear
11:35 AM-6 °C-11 °C68 %1029.1 hPa16.1 kmCalmClear
11:55 AM-6 °C-12 °C63 %1028.4 hPa16.1 kmCalmClear
12:15 PM-6 °C-11 °C68 %1028.1 hPa16.1 kmCalmClear
12:35 PM-5 °C-11 °C63 %1028.1 hPa16.1 kmESE (120°)5.6 km/hClear
12:55 PM-5 °C-11 °C63 %1027.8 hPa16.1 kmCalmClear
1:15 PM-4 °C-10 °C64 %1027.8 hPa16.1 kmCalmClear
1:35 PM-4 °C-11 °C59 %1027.4 hPa16.1 kmCalmClear
1:55 PM-4 °C-11 °C59 %1027.1 hPa16.1 kmCalmClear
2:15 PM-3 °C-11 °C55 %1027.1 hPa16.1 kmCalmClear
2:35 PM-3 °C-10 °C59 %1026.8 hPa16.1 kmCalmClear
2:55 PM-3 °C-10 °C59 %1026.4 hPa16.1 kmCalmClear
3:15 PM-3 °C-9 °C64 %1025.7 hPa16.1 kmSouth (170°)5.6 km/hClear
3:35 PM-3 °C-10 °C59 %1026.1 hPa16.1 kmCalmClear
3:55 PM-3 °C-9 °C64 %1026.1 hPa16.1 kmCalmClear
4:15 PM-3 °C-10 °C59 %1025.7 hPa16.1 kmCalmClear
4:35 PM-3 °C-10 °C59 %1025.7 hPa16.1 kmCalmClear
4:55 PM-3 °C-10 °C59 %1026.1 hPa16.1 kmCalmClear
5:15 PM-3 °C-9 °C64 %1026.8 hPa16.1 kmCalmClear
5:35 PM-3 °C-9 °C64 %1027.1 hPa16.1 kmCalmClear
5:55 PM-4 °C-9 °C69 %1027.1 hPa16.1 kmCalmClear
6:15 PM-4 °C-9 °C69 %1027.4 hPa16.1 kmCalmClear
6:35 PM-4 °C-9 °C69 %1026.8 hPa16.1 kmCalmPartly Cloudy
6:55 PM-4 °C-9 °C69 %1026.1 hPa16.1 kmCalmPartly Cloudy
7:15 PM-4 °C-9 °C69 %1026.4 hPa16.1 kmCalmClear
7:35 PM-4 °C-9 °C69 %1026.1 hPa16.1 kmENE (60°)5.6 km/hScattered Clouds
7:55 PM-4 °C-8 °C74 %1026.4 hPa16.1 kmCalmScattered Clouds
8:15 PM-4 °C-9 °C69 %1026.4 hPa16.1 kmCalmClear
8:35 PM-4 °C-9 °C69 %1026.1 hPa16.1 kmENE (60°)7.4 km/hMostly Cloudy
8:55 PM-4 °C-8 °C74 %1026.4 hPa16.1 kmESE (110°)9.3 km/hMostly Cloudy
9:15 PM-4 °C-8 °C74 %1025.7 hPa16.1 kmENE (60°)7.4 km/hOvercast
9:35 PM-4 °C-9 °C69 %1026.1 hPa16.1 kmEast (90°)9.3 km/hMostly Cloudy
9:55 PM-4 °C-8 °C74 %1025.1 hPa16.1 kmEast (80°)7.4 km/hPartly Cloudy
10:15 PM-5 °C-9 °C74 %1024.4 hPa16.1 kmEast (80°)13 km/hClear
10:35 PM-5 °C-9 °C74 %1023.7 hPa16.1 kmENE (60°)14.8 km/hClear
10:55 PM-5 °C-9 °C74 %1024 hPa16.1 kmEast (100°)7.4 km/hScattered Clouds
11:15 PM-5 °C-9 °C74 %1023.4 hPa16.1 kmESE (120°)13 km/hOvercast
11:35 PM-6 °C-9 °C80 %1023 hPa16.1 kmEast (100°)11.1 km/hOvercast
11:55 PM-6 °C-9 °C80 %1023 hPa16.1 kmEast (100°)13 km/hOvercast
Hourly data recorded from KMSV, located 0 kilometers away from Rock Hill, New York







STORIES FROM OUR PARTNERS